NOAA 21 (JPSS-2)

Last updated on Thu Jul 03 2025 00:02:22 GMT+0000 (Coordinated Universal Time)

1 54234U 22150A 25183.57169403 .00000045 00000+0 42164-4 0 9991 2 54234 98.7272 122.1132 0002707 98.3469 261.8014 14.19541980136949
UTC large
Height (km)
Speed (km/s)
/
Latitude / Longitude
Inclination (degrees)
Orbital Period (minutes)
Azimuth
Elevation
Range (km)
Doppler Factor

Next 0 passes for location: London (51.5072 / 0.1276)

Sorry there are no passes over London.